Previsão horária em Ploskinia

Hoje, 6 Março, Sábado

Tempo Temperatura Precipitação Vento Pressão Humidade
00:00 -3°C° 0 mm 2 m/s 763 mmHg 79%
01:00 -3°C° 0 mm 2 m/s 763 mmHg 78%
02:00 -3°C° 0 mm 2 m/s 763 mmHg 77%
03:00 -3°C° 0 mm 2 m/s 763 mmHg 76%
04:00 -4°C° 0 mm 3 m/s 763 mmHg 75%
05:00 -3°C° 0 mm 2 m/s 763 mmHg 74%
06:00 -3°C° 0 mm 2 m/s 763 mmHg 73%
07:00 -3°C° 0 mm 2 m/s 763 mmHg 72%
08:00 -2°C° 0 mm 3 m/s 763 mmHg 67%
09:00 -1°C° 0 mm 4 m/s 763 mmHg 62%
10:00 0°C° 0 mm 4 m/s 763 mmHg 56%
11:00 0°C° 0 mm 5 m/s 763 mmHg 54%
12:00 +1°C° 0 mm 5 m/s 762 mmHg 52%
13:00 +2°C° 0 mm 6 m/s 762 mmHg 50%
14:00 +2°C° 0 mm 6 m/s 761 mmHg 51%
15:00 +1°C° 0 mm 6 m/s 761 mmHg 53%
16:00 +1°C° 0 mm 6 m/s 760 mmHg 54%
17:00 -1°C° 0 mm 6 m/s 759 mmHg 65%
18:00 -1°C° 0 mm 7 m/s 759 mmHg 76%
19:00 -2°C° 0 mm 8 m/s 758 mmHg 86%
20:00 -2°C° 0 mm 8 m/s 758 mmHg 85%
21:00 -2°C° 0 mm 8 m/s 757 mmHg 84%
22:00 -1°C° 0 mm 9 m/s 757 mmHg 83%
23:00 -1°C° 0 mm 9 m/s 756 mmHg 83%

Amanhã, 7 Março, Domingo

Tempo Temperatura Precipitação Vento Pressão Humidade
00:00 -1°C° 0 mm 9 m/s 755 mmHg 83%
01:00 -1°C° 0 mm 9 m/s 755 mmHg 83%
02:00 -1°C° 0 mm 9 m/s 754 mmHg 86%
03:00 -1°C° 0 mm 9 m/s 754 mmHg 88%
04:00 -1°C° 0 mm 9 m/s 753 mmHg 91%
05:00 -1°C° 0.3 mm 8 m/s 753 mmHg 93%
06:00 -2°C° 0.3 mm 7 m/s 753 mmHg 94%
07:00 -2°C° 0.3 mm 6 m/s 753 mmHg 96%
08:00 -2°C° 0.5 mm 6 m/s 753 mmHg 96%
09:00 -1°C° 0.5 mm 5 m/s 753 mmHg 95%
10:00 -1°C° 0.5 mm 5 m/s 753 mmHg 95%
11:00 -1°C° 0.5 mm 5 m/s 753 mmHg 93%
12:00 -1°C° 0.5 mm 5 m/s 753 mmHg 92%
13:00 -2°C° 0.5 mm 6 m/s 753 mmHg 90%
14:00 -2°C° 0.2 mm 6 m/s 753 mmHg 81%
15:00 -1°C° 0.2 mm 5 m/s 753 mmHg 72%
16:00 -1°C° 0.2 mm 5 m/s 753 mmHg 63%
17:00 -2°C° 0 mm 5 m/s 753 mmHg 66%
18:00 -3°C° 0 mm 4 m/s 753 mmHg 69%
19:00 -3°C° 0 mm 4 m/s 753 mmHg 72%
20:00 -4°C° 0 mm 4 m/s 754 mmHg 73%
21:00 -4°C° 0 mm 3 m/s 754 mmHg 74%
22:00 -4°C° 0 mm 3 m/s 754 mmHg 74%
23:00 -4°C° 0 mm 3 m/s 754 mmHg 74%

Depois de amanhã, 8 Março, Segunda-feira

Tempo Temperatura Precipitação Vento Pressão Humidade
00:00 -4°C° 0 mm 3 m/s 754 mmHg 74%
01:00 -4°C° 0 mm 3 m/s 755 mmHg 75%
02:00 -4°C° 0 mm 3 m/s 755 mmHg 75%
03:00 -4°C° 0 mm 3 m/s 755 mmHg 76%
04:00 -4°C° 0 mm 4 m/s 755 mmHg 77%
05:00 -4°C° 0 mm 4 m/s 755 mmHg 77%
06:00 -3°C° 0 mm 4 m/s 756 mmHg 77%
07:00 -3°C° 0 mm 4 m/s 756 mmHg 77%
08:00 -4°C° 0.1 mm 5 m/s 756 mmHg 74%
09:00 -3°C° 0.1 mm 6 m/s 757 mmHg 71%
10:00 -3°C° 0.1 mm 7 m/s 757 mmHg 68%
11:00 -3°C° 0.1 mm 6 m/s 757 mmHg 67%
12:00 -3°C° 0.1 mm 6 m/s 758 mmHg 67%
13:00 -3°C° 0.1 mm 6 m/s 758 mmHg 66%
14:00 -3°C° 0 mm 6 m/s 758 mmHg 66%
15:00 -2°C° 0 mm 5 m/s 758 mmHg 67%
16:00 -4°C° 0 mm 5 m/s 759 mmHg 67%
17:00 -3°C° 0 mm 4 m/s 759 mmHg 71%
18:00 -4°C° 0 mm 3 m/s 759 mmHg 74%
19:00 -4°C° 0 mm 2 m/s 760 mmHg 78%
20:00 -4°C° 0 mm 2 m/s 760 mmHg 78%
21:00 -4°C° 0 mm 2 m/s 760 mmHg 78%
22:00 -2°C° 0 mm 1 m/s 760 mmHg 78%
23:00 -2°C° 0 mm 1 m/s 760 mmHg 77%

9 Março, Terça-feira

Tempo Temperatura Precipitação Vento Pressão Humidade
00:00 -2°C° 0 mm 1 m/s 760 mmHg 75%
01:00 -2°C° 0 mm 1 m/s 760 mmHg 74%
02:00 -2°C° 0 mm 1 m/s 760 mmHg 74%
03:00 -2°C° 0 mm 1 m/s 760 mmHg 74%
04:00 -2°C° 0 mm 1 m/s 760 mmHg 74%
05:00 -4°C° 0 mm 2 m/s 760 mmHg 74%
06:00 -4°C° 0 mm 2 m/s 760 mmHg 74%
07:00 -4°C° 0 mm 2 m/s 760 mmHg 75%
08:00 -3°C° 0 mm 2 m/s 760 mmHg 70%
09:00 -4°C° 0 mm 3 m/s 760 mmHg 65%
10:00 -2°C° 0 mm 3 m/s 759 mmHg 61%
11:00 -1°C° 0 mm 3 m/s 759 mmHg 60%
12:00 -1°C° 0 mm 3 m/s 759 mmHg 59%
13:00 -1°C° 0 mm 4 m/s 759 mmHg 59%
14:00 0°C° 0 mm 3 m/s 758 mmHg 61%
15:00 0°C° 0 mm 3 m/s 758 mmHg 64%
16:00 0°C° 0 mm 3 m/s 758 mmHg 66%
17:00 -1°C° 0 mm 3 m/s 758 mmHg 69%
18:00 -1°C° 0 mm 3 m/s 758 mmHg 73%
19:00 -2°C° 0 mm 2 m/s 758 mmHg 76%
20:00 -2°C° 0 mm 2 m/s 758 mmHg 81%
21:00 -2°C° 0 mm 3 m/s 757 mmHg 87%
22:00 -2°C° 0 mm 3 m/s 757 mmHg 92%
23:00 -2°C° 0.1 mm 3 m/s 757 mmHg 93%

10 Março, Quarta-feira

Tempo Temperatura Precipitação Vento Pressão Humidade
00:00 -2°C° 0.1 mm 3 m/s 757 mmHg 94%
01:00 -2°C° 0.1 mm 3 m/s 757 mmHg 96%
02:00 -4°C° 0.1 mm 3 m/s 757 mmHg 96%
03:00 -3°C° 0.1 mm 2 m/s 756 mmHg 96%
04:00 -3°C° 0.1 mm 2 m/s 756 mmHg 96%
05:00 -3°C° 0 mm 2 m/s 756 mmHg 95%
06:00 -2°C° 0 mm 2 m/s 756 mmHg 94%
07:00 -2°C° 0 mm 2 m/s 757 mmHg 93%
08:00 -1°C° 0 mm 2 m/s 757 mmHg 90%
09:00 +1°C° 0 mm 2 m/s 757 mmHg 87%
10:00 +2°C° 0 mm 2 m/s 757 mmHg 85%
11:00 +2°C° 0 mm 2 m/s 757 mmHg 82%
12:00 +3°C° 0 mm 2 m/s 757 mmHg 80%
13:00 +3°C° 0 mm 2 m/s 757 mmHg 77%
14:00 +3°C° 0 mm 2 m/s 757 mmHg 81%
15:00 +3°C° 0 mm 2 m/s 756 mmHg 85%
16:00 +2°C° 0 mm 3 m/s 756 mmHg 89%
17:00 +1°C° 0 mm 3 m/s 756 mmHg 92%
18:00 +1°C° 0 mm 3 m/s 756 mmHg 94%
19:00 0°C° 0 mm 3 m/s 756 mmHg 97%
20:00 0°C° 0 mm 3 m/s 756 mmHg 97%
21:00 0°C° 0 mm 3 m/s 755 mmHg 97%
22:00 0°C° 0 mm 3 m/s 755 mmHg 97%
23:00 -1°C° 0 mm 4 m/s 755 mmHg 96%

11 Março, Quinta-feira

Tempo Temperatura Precipitação Vento Pressão Humidade
00:00 -1°C° 0 mm 4 m/s 754 mmHg 95%
01:00 0°C° 0 mm 5 m/s 753 mmHg 94%
02:00 0°C° 0 mm 5 m/s 752 mmHg 93%
03:00 -1°C° 0 mm 6 m/s 752 mmHg 92%
04:00 -1°C° 0 mm 7 m/s 751 mmHg 91%
05:00 -1°C° 0.1 mm 7 m/s 750 mmHg 89%
06:00 -1°C° 0.1 mm 7 m/s 749 mmHg 88%
07:00 -1°C° 0.1 mm 8 m/s 748 mmHg 86%
08:00 0°C° 0.7 mm 8 m/s 748 mmHg 88%
09:00 0°C° 0.7 mm 9 m/s 747 mmHg 89%
10:00 0°C° 0.7 mm 9 m/s 746 mmHg 90%
11:00 +1°C° 0.3 mm 9 m/s 746 mmHg 90%
12:00 +2°C° 0.3 mm 9 m/s 745 mmHg 90%
13:00 +2°C° 0.3 mm 8 m/s 744 mmHg 90%
14:00 +4°C° 0.2 mm 8 m/s 744 mmHg 87%
15:00 +5°C° 0.2 mm 9 m/s 744 mmHg 84%
16:00 +5°C° 0.2 mm 9 m/s 744 mmHg 82%
17:00 +4°C° 0.2 mm 8 m/s 744 mmHg 81%
18:00 +3°C° 0.2 mm 7 m/s 744 mmHg 80%
19:00 +2°C° 0.2 mm 6 m/s 745 mmHg 80%
20:00 +2°C° 0 mm 7 m/s 745 mmHg 82%
21:00 +2°C° 0 mm 7 m/s 746 mmHg 85%
22:00 +2°C° 0 mm 7 m/s 746 mmHg 87%
23:00 0°C° 0 mm 7 m/s 746 mmHg 86%
Mostrar mais

Necessitamos do seu Consentimento

A Meteoprog e os seus Fornecedores de Serviços podem armazenar e aceder a dados pessoais como cookies, identificadores do dispositivo ou outras tecnologias semelhantes existentes no seu dispositivo e processar estes dados para personalizar conteúdos e anúncios, assim como funcionalidades nas redes sociais e análise de tráfego.

  • Armazenar e/ou aceder a informações no seu dispositivo

    Os cookies, identificadores do dispositivo ou outras informações podem ser armazenados ou acedidos no seu dispositivo, para os fins acima indicados.

  • Anúncios e conteúdos personalizados, medição de anúncios e conteúdos, dados sobre o público-alvo e desenvolvimento de produtos

    Os anúncios e os conteúdos podem ser personalizados com base num perfil. Podem ser adicionados dados adicionais para uma maior personalização dos anúncios e dos conteúdos. A eficácia dos anúncios e dos conteúdos pode ser medida. Podem ser obtidas informações sobre o público que visualizou os anúncios e os conteúdos. Estes dados podem ser usados para desenvolver ou melhorar sistemas, softwares ou a experiência do utilizador.

Ao clicar em "Eu concordo”, permitirá o uso de cookies, identificadores do dispositivo e web beacons mencionados ou outras tecnologias semelhantes. As configurações do navegador do seu dispositivo podem ser alteradas.

Para certos fins, podem ser invocados interesses legítimos ao invés de consentimento. Pode ler mais informação sobre este assunto na nossa Política de Privacidade e Cookies.